EW2108 Weather Reports


time (UTC)temp
C
wind
direction
speed
KPH
gust
KPH
rain 1hr
cm
rain 24hr
cm
rain mn
cm
humidity
%
barometer
mb
20260510084514 19 148 1.6 8.0 0.00 0.00 0.00 79 1029.8
20260510083013 19 204 3.2 11.3 0.00 0.00 0.00 79 1029.5
20260510081531 19 202 8.0 16.1 0.00 0.00 0.00 80 1029.3
20260510080009 19 179 3.2 9.7 0.00 0.00 0.00 80 1029.2
20260510074508 19 186 1.6 6.4 0.00 0.00 0.00 79 1029.0
20260510073007 20 193 1.6 12.9 0.00 0.00 0.00 77 1028.9
20260510071508 20 144 3.2 6.4 0.00 0.00 0.00 77 1028.7
20260510070005 20 136 1.6 14.5 0.00 0.00 0.00 76 1028.6
20260510064547 20 138 4.8 16.1 0.00 0.00 0.00 76 1028.4
20260510063003 20 141 6.4 14.5 0.00 0.00 0.00 76 1028.2
20260510061535 20 140 3.2 11.3 0.00 0.00 0.00 76 1028.0
20260510060101 20 198 4.8 14.5 0.00 0.00 0.00 76 1027.9
20260510054559 20 141 4.8 14.5 0.00 0.00 0.00 75 1027.8
20260510054529 20 150 3.2 12.9 0.00 0.00 0.00 75 1027.7
20260510053115 20 140 6.4 16.1 0.00 0.00 0.00 74 1027.7
20260510051605 21 134 8.0 16.1 0.00 0.00 0.00 73 1027.5
20260510050110 20 126 3.2 16.1 0.00 0.00 0.00 72 1027.4
20260510044605 20 132 4.8 19.3 0.00 0.00 0.00 71 1027.3
20260510043058 20 132 11.3 16.1 0.00 0.00 0.00 69 1027.3
20260510043024 20 133 9.7 16.1 0.00 0.00 0.00 69 1027.4
20260510041558 21 132 6.4 17.7 0.00 0.00 0.00 68 1027.3
20260510040052 21 182 1.6 11.3 0.00 0.00 0.00 65 1027.2
20260510034550 21 140 4.8 11.3 0.00 0.00 0.00 66 1027.3
20260510033058 21 131 4.8 16.1 0.00 0.00 0.00 65 1027.3
20260510031548 22 146 4.8 11.3 0.00 0.00 0.00 61 1027.4
20260510030100 22 143 3.2 14.5 0.00 0.00 0.00 62 1027.4
20260510024642 21 135 3.2 11.3 0.00 0.00 0.00 63 1027.6
20260510023042 21 188 4.8 16.1 0.00 0.00 0.00 64 1027.8
20260510021539 21 131 3.2 12.9 0.00 0.00 0.00 64 1027.9
20260510020037 21 150 3.2 16.1 0.00 0.00 0.00 63 1028.2
20260510014539 21 147 6.4 14.5 0.00 0.00 0.00 62 1028.3
20260510013035 21 144 6.4 14.5 0.00 0.00 0.00 63 1028.4
20260510011531 21 142 4.8 14.5 0.00 0.00 0.00 66 1028.8
20260510010027 21 165 1.6 11.3 0.00 0.00 0.00 63 1028.9
20260510004521 20 182 4.8 9.7 0.00 0.00 0.00 66 1029.0
20260510003017 20 166 4.8 9.7 0.00 0.00 0.00 67 1029.1
20260510001545 20 166 4.8 11.3 0.00 0.00 0.00 69 1029.0
20260510000049 19 159 3.2 8.0 0.00 0.00 0.00 71 1028.9
20260509234552 18 159 3.2 11.3 0.00 0.00 0.00 73 1028.9
20260509233036 18 151 1.6 8.0 0.00 0.00 0.00 77 1028.6
20260509231532 17 138 0.0 4.8 0.00 0.00 0.00 81 1028.6
20260509230025 16 134 0.0 6.4 0.00 0.00 0.00 86 1028.5
20260509224521 15 134 1.6 4.8 0.00 0.00 0.00 91 1028.5
20260509223019 14 134 0.0 3.2 0.00 0.00 0.00 94 1028.5
20260509221515 13 134 0.0 3.2 0.00 0.00 0.00 95 1028.5
20260509220010 13 134 0.0 1.6 0.00 0.00 0.00 95 1028.3
20260509214507 12 134 0.0 4.8 0.00 0.00 0.00 95 1028.1
20260509213006 12 134 0.0 0.0 0.00 0.00 0.00 95 1028.0
20260509211532 12 134 0.0 0.0 0.00 0.00 0.00 95 1027.9
20260509210000 11 134 0.0 0.0 0.00 0.00 0.00 95 1027.7
20260509204557 11 134 0.0 0.0 0.00 0.00 0.00 95 1027.5
20260509203104 11 134 0.0 0.0 0.00 0.00 0.00 95 1027.4
20260509201602 11 134 0.0 0.0 0.00 0.00 0.00 94 1027.4
20260509200106 11 134 0.0 0.0 0.00 0.00 0.00 94 1027.1
20260509194549 11 134 0.0 0.0 0.00 0.00 0.00 94 1026.9
20260509193109 11 134 0.0 0.0 0.00 0.00 0.00 94 1026.7
20260509190043 11 134 0.0 0.0 0.00 0.00 0.00 94 1026.4
20260509184553 11 134 0.0 0.0 0.00 0.00 0.00 94 1026.3
20260509183041 11 134 0.0 0.0 0.00 0.00 0.00 94 1026.1
20260509181535 11 134 0.0 0.0 0.00 0.00 0.00 94 1026.1
20260509180032 11 134 0.0 0.0 0.00 0.00 0.00 94 1026.0
20260509174526 11 134 0.0 0.0 0.00 0.00 0.00 94 1025.9
20260509173025 11 134 0.0 1.6 0.00 0.00 0.00 94 1025.9
20260509171536 12 134 0.0 1.6 0.00 0.00 0.00 94 1026.0
20260509170023 12 134 0.0 0.0 0.00 0.00 0.00 94 1025.9
20260509164522 12 134 0.0 1.6 0.00 0.00 0.00 94 1025.9
20260509163151 11 134 0.0 1.6 0.00 0.00 0.00 93 1026.0
20260509161519 12 134 0.0 0.0 0.00 0.00 0.00 93 1025.9
20260509160020 12 134 0.0 3.2 0.00 0.00 0.00 94 1025.9
20260509154519 12 134 0.0 0.0 0.00 0.00 0.00 94 1025.9
20260509153016 12 134 0.0 0.0 0.00 0.00 0.00 93 1026.0
20260509151514 12 134 0.0 1.6 0.00 0.00 0.00 93 1025.9
20260509150014 12 134 0.0 0.0 0.00 0.00 0.00 93 1025.9
20260509144517 12 134 0.0 0.0 0.00 0.00 0.00 93 1025.9
20260509143011 12 134 0.0 0.0 0.00 0.00 0.00 93 1025.9
20260509141519 12 134 0.0 0.0 0.00 0.00 0.00 93 1025.6
20260509140006 12 134 0.0 0.0 0.00 0.00 0.00 92 1025.6
20260509134506 12 134 0.0 0.0 0.00 0.00 0.00 92 1025.6
20260509133005 12 134 0.0 0.0 0.00 0.00 0.00 92 1025.7
20260509131506 12 134 0.0 3.2 0.00 0.00 0.00 91 1025.8
20260509130003 13 134 0.0 0.0 0.00 0.00 0.00 91 1025.7
20260509124503 13 134 0.0 0.0 0.00 0.00 0.00 91 1025.8
20260509123002 13 134 0.0 0.0 0.00 0.00 0.00 90 1025.8
20260509121504 13 134 0.0 0.0 0.00 0.00 0.00 90 1025.8
20260509120108 13 134 0.0 0.0 0.00 0.00 0.00 90 1025.9
20260509113058 13 134 0.0 3.2 0.00 0.00 0.00 88 1025.8
20260509111557 13 134 0.0 1.6 0.00 0.00 0.00 87 1025.9
20260509110056 13 134 0.0 0.0 0.00 0.00 0.00 86 1025.8
20260509110025 13 134 0.0 0.0 0.00 0.00 0.00 86 1025.8
20260509104554 14 134 0.0 1.6 0.00 0.00 0.00 84 1025.8
20260509103052 14 134 0.0 1.6 0.00 0.00 0.00 83 1025.7
20260509101552 14 134 0.0 1.6 0.00 0.00 0.00 82 1025.6
20260509100055 14 134 0.0 0.0 0.00 0.00 0.00 81 1025.5
20260509094551 15 134 0.0 0.0 0.00 0.00 0.00 78 1025.5
20260509093046 15 134 0.0 0.0 0.00 0.00 0.00 76 1025.4
20260509091545 16 134 0.0 3.2 0.00 0.00 0.00 75 1025.3
20260509090045 16 134 1.6 3.2 0.00 0.00 0.00 75 1025.1